Change the Weather History Date:

Thursday, March 6, 2014

  Actual Average Record
Temperature  
Mean Temperature 55 °F -  
Max Temperature 59 °F - - ()
Min Temperature 51 °F - - ()
Degree Days  
Heating Degree Days 10    
Growing Degree Days 5 (Base 50)    
Moisture  
Dew Point 49 °F    
Average Humidity 80    
Maximum Humidity 94    
Minimum Humidity 63    
Precipitation  
Precipitation 0.00 in - - ()
Sea Level Pressure  
Sea Level Pressure 30.04 in    
Wind  
Wind Speed 18 mph (NNW)    
Max Wind Speed 24 mph    
Max Gust Speed 30 mph    
Visibility 10 miles    
Events      
T = Trace of Precipitation, MM = Missing Value Source: NWS Daily Summary

Daily Weather History Graph

Daily Weather History Graph

Search for Another Location

Airport or City:

Trip Planner

Search our weather history database for the weather conditions in past years. The results will help you decide how hot, cold, wet, or windy it might be!

Date:

Astronomy

Mar. 06, 2014 Rise Set
Actual Time 6:31 AM CST 6:14 PM CST
Civil Twilight 6:07 AM CST 6:38 PM CST
Nautical Twilight 5:40 AM CST 7:05 PM CST
Astronomical Twilight 5:12 AM CST 7:32 PM CST
Moon 10:07 AM CST (3/6) 11:51 PM CST (3/6)
Length of Visible Light 12h 30m
Length of Day
11h 43m
Waxing Crescent, 32% of the Moon is Illuminated
Mar 6
Waxing Crescent
Mar 8
First Quarter
Mar 16
Full
Mar 23
Last Quarter
Mar 30
New

Hourly Weather History & Observations

Time (CST) Temp. Dew Point Humidity Pressure Visibility Wind Dir Wind Speed Gust Speed Precip Events Conditions
12:15 AM 59.0 °F 55.4 °F 88% 29.97 in 10.0 mi ENE 17.3 mph - N/A   Partly Cloudy
12:35 AM 59.0 °F 55.4 °F 88% 29.98 in 9.0 mi ENE 15.0 mph - N/A   Scattered Clouds
12:55 AM 59.0 °F 55.4 °F 88% 29.98 in 9.0 mi NNE 12.7 mph - N/A   Mostly Cloudy
1:15 AM 59.0 °F 55.4 °F 88% 29.99 in 10.0 mi North 16.1 mph - N/A   Overcast
1:35 AM 59.0 °F 55.4 °F 88% 29.99 in 10.0 mi North 17.3 mph - N/A   Overcast
1:55 AM 57.2 °F 55.4 °F 94% 30.00 in 8.0 mi NNW 16.1 mph - N/A   Mostly Cloudy
2:15 AM 57.2 °F 53.6 °F 88% 30.00 in 9.0 mi NNW 12.7 mph - N/A   Mostly Cloudy
2:35 AM 57.2 °F 53.6 °F 88% 30.00 in 8.0 mi NNW 16.1 mph - N/A   Mostly Cloudy
2:55 AM 57.2 °F 53.6 °F 88% 30.00 in 9.0 mi NNW 13.8 mph - N/A   Mostly Cloudy
3:15 AM 55.4 °F 51.8 °F 88% 29.99 in 9.0 mi NNW 16.1 mph 21.9 mph N/A   Mostly Cloudy
3:35 AM 55.4 °F 51.8 °F 88% 29.99 in 8.0 mi NNW 15.0 mph - N/A   Mostly Cloudy
3:55 AM 55.4 °F 51.8 °F 88% 29.98 in 8.0 mi NNW 16.1 mph - N/A   Mostly Cloudy
4:15 AM 55.4 °F 51.8 °F 88% 29.98 in 10.0 mi NNW 16.1 mph - N/A   Overcast
4:35 AM 55.4 °F 51.8 °F 88% 29.99 in 10.0 mi NNW 15.0 mph - N/A   Overcast
4:55 AM 55.4 °F 51.8 °F 88% 30.00 in 10.0 mi NNW 16.1 mph - N/A   Overcast
5:15 AM 55.4 °F 51.8 °F 88% 30.02 in 10.0 mi NNW 16.1 mph - N/A   Overcast
5:35 AM 55.4 °F 51.8 °F 88% 30.02 in 10.0 mi NW 19.6 mph 25.3 mph N/A   Overcast
5:55 AM 55.4 °F 51.8 °F 88% 30.03 in 9.0 mi NNW 17.3 mph 24.2 mph N/A   Mostly Cloudy
6:15 AM 55.4 °F 51.8 °F 88% 30.03 in 9.0 mi NW 19.6 mph - N/A   Mostly Cloudy
6:35 AM 55.4 °F 51.8 °F 88% 30.03 in 9.0 mi NNW 19.6 mph 25.3 mph N/A   Overcast
6:55 AM 55.4 °F 51.8 °F 88% 30.04 in 8.0 mi NNW 20.7 mph - N/A   Overcast
7:15 AM 55.4 °F 50.0 °F 82% 30.05 in 9.0 mi NNW 17.3 mph 24.2 mph N/A   Overcast
7:35 AM 55.4 °F 50.0 °F 82% 30.05 in 9.0 mi NNW 20.7 mph - N/A   Overcast
7:55 AM 55.4 °F 50.0 °F 82% 30.06 in 9.0 mi NNW 18.4 mph - N/A   Overcast
8:15 AM 53.6 °F 50.0 °F 88% 30.06 in 9.0 mi NW 20.7 mph - N/A   Overcast
8:35 AM 53.6 °F 50.0 °F 88% 30.06 in 9.0 mi NW 19.6 mph - N/A   Overcast
8:55 AM 53.6 °F 50.0 °F 88% 30.07 in 10.0 mi NNW 17.3 mph 23.0 mph N/A   Overcast
9:15 AM 53.6 °F 50.0 °F 88% 30.07 in 10.0 mi NNW 17.3 mph - N/A   Overcast
9:35 AM 53.6 °F 50.0 °F 88% 30.07 in 10.0 mi NNW 17.3 mph 24.2 mph N/A   Overcast
9:55 AM 53.6 °F 50.0 °F 88% 30.07 in 10.0 mi NW 17.3 mph - N/A   Overcast
10:15 AM 53.6 °F 50.0 °F 88% 30.07 in - NNW 18.4 mph - N/A   Overcast
10:35 AM 53.6 °F 50.0 °F 88% 30.08 in 10.0 mi NW 21.9 mph - N/A   Overcast
10:55 AM 53.6 °F 48.2 °F 82% 30.08 in 10.0 mi NNW 16.1 mph 24.2 mph N/A   Overcast
11:15 AM 53.6 °F 48.2 °F 82% 30.08 in 10.0 mi NW 24.2 mph - N/A   Overcast
11:35 AM 53.6 °F 48.2 °F 82% 30.08 in 10.0 mi NW 23.0 mph 29.9 mph N/A   Overcast
11:55 AM 53.6 °F 48.2 °F 82% 30.08 in 10.0 mi NNW 17.3 mph 25.3 mph N/A   Overcast
12:15 PM 53.6 °F 48.2 °F 82% 30.08 in 10.0 mi NNW 19.6 mph - N/A   Overcast
12:35 PM 53.6 °F 48.2 °F 82% 30.08 in 9.0 mi NW 23.0 mph 28.8 mph N/A   Overcast
12:55 PM 51.8 °F 46.4 °F 82% 30.07 in 10.0 mi NNW 21.9 mph - N/A   Overcast
1:15 PM 53.6 °F 48.2 °F 82% 30.07 in 10.0 mi NNW 20.7 mph - N/A   Overcast
1:35 PM 51.8 °F 46.4 °F 82% 30.06 in 10.0 mi NNW 19.6 mph 27.6 mph N/A   Mostly Cloudy
1:55 PM 51.8 °F 46.4 °F 82% 30.06 in 10.0 mi NNW 20.7 mph 27.6 mph N/A   Mostly Cloudy
2:15 PM 51.8 °F 46.4 °F 82% 30.05 in 10.0 mi NW 20.7 mph - N/A   Overcast
2:35 PM 51.8 °F 44.6 °F 76% 30.05 in 10.0 mi NNW 17.3 mph 26.5 mph N/A   Mostly Cloudy
2:55 PM 53.6 °F 46.4 °F 77% 30.04 in 10.0 mi NNW 21.9 mph 27.6 mph N/A   Mostly Cloudy
3:15 PM 53.6 °F 44.6 °F 72% 30.04 in 10.0 mi NNW 23.0 mph - N/A   Scattered Clouds
3:35 PM 53.6 °F 44.6 °F 72% 30.04 in 10.0 mi NNW 19.6 mph 26.5 mph N/A   Scattered Clouds
3:55 PM 53.6 °F 44.6 °F 72% 30.04 in 10.0 mi NNW 21.9 mph - N/A   Scattered Clouds
4:15 PM 53.6 °F 44.6 °F 72% 30.04 in 10.0 mi NW 21.9 mph 27.6 mph N/A   Partly Cloudy
4:35 PM 53.6 °F 44.6 °F 72% 30.04 in 10.0 mi NW 21.9 mph - N/A   Partly Cloudy
4:55 PM 55.4 °F 44.6 °F 67% 30.04 in 10.0 mi NW 18.4 mph 26.5 mph N/A   Partly Cloudy
5:15 PM 55.4 °F 44.6 °F 67% 30.04 in 10.0 mi NNW 16.1 mph - N/A   Partly Cloudy
5:35 PM 55.4 °F 44.6 °F 67% 30.04 in 10.0 mi NNW 18.4 mph - N/A   Clear
5:55 PM 55.4 °F 44.6 °F 67% 30.03 in 10.0 mi NNW 17.3 mph - N/A   Partly Cloudy
6:15 PM 55.4 °F 44.6 °F 67% 30.03 in 10.0 mi NNW 17.3 mph - N/A   Partly Cloudy
6:35 PM 55.4 °F 44.6 °F 67% 30.03 in 10.0 mi North 20.7 mph - N/A   Scattered Clouds
6:55 PM 55.4 °F 44.6 °F 67% 30.03 in 10.0 mi North 17.3 mph 23.0 mph N/A   Overcast
7:15 PM 55.4 °F 44.6 °F 67% 30.04 in 10.0 mi NNW 15.0 mph 23.0 mph N/A   Mostly Cloudy
7:35 PM 55.4 °F 42.8 °F 63% 30.04 in 10.0 mi North 18.4 mph - N/A   Overcast
7:55 PM 57.2 °F 44.6 °F 63% 30.05 in 10.0 mi NNW 12.7 mph 21.9 mph N/A   Overcast
8:15 PM 57.2 °F 46.4 °F 67% 30.05 in 10.0 mi North 18.4 mph 24.2 mph N/A   Overcast
8:35 PM 55.4 °F 46.4 °F 72% 30.06 in 10.0 mi North 17.3 mph - N/A   Mostly Cloudy
8:55 PM 55.4 °F 48.2 °F 77% 30.07 in 10.0 mi North 18.4 mph - N/A   Scattered Clouds
9:15 PM 55.4 °F 48.2 °F 77% 30.07 in 10.0 mi North 17.3 mph - N/A   Scattered Clouds
9:35 PM 55.4 °F 48.2 °F 77% 30.07 in 10.0 mi North 17.3 mph - N/A   Scattered Clouds
9:55 PM 55.4 °F 48.2 °F 77% 30.07 in 10.0 mi North 18.4 mph - N/A   Partly Cloudy
10:15 PM 55.4 °F 46.4 °F 72% 30.07 in 10.0 mi NNE 19.6 mph - N/A   Partly Cloudy
10:35 PM 53.6 °F 46.4 °F 77% 30.07 in 10.0 mi NNE 20.7 mph - N/A   Partly Cloudy
10:55 PM 55.4 °F 48.2 °F 77% 30.08 in 10.0 mi North 20.7 mph - N/A   Partly Cloudy
11:15 PM 55.4 °F 46.4 °F 72% 30.06 in 10.0 mi North 21.9 mph - N/A   Clear
11:35 PM 55.4 °F 46.4 °F 72% 30.06 in 10.0 mi North 18.4 mph - N/A   Clear
11:55 PM 55.4 °F 46.4 °F 72% 30.06 in 10.0 mi NNE 19.6 mph - N/A   Clear